[[{"header":{"parameterUnit":"m.s-1","parameterCategory":1,"la1":30.2992,"la2":30.254,"lo1":-89.0895,"lo2":-89.0443,"dy":0.0025,"dx":0.0025,"nx":19,"ny":19,"refTime":"2026-05-07T03:00:00:Z","depth":0,"parameterNumber":2,"parameterNumberName":"U-component_of_WINDS"},"data":[0,0,0,-0.876,-0.8759,-0.8686,-0.8686,-0.8615,-0.8614,0,0,0,0,0,0,0,0,0,0,0,-0.8797,-0.8797,-0.876,-0.8759,-0.8686,-0.8686,-0.8615,-0.8614,0,0,0,0,0,0,0,0,0,0,0,-0.8797,-0.8797,-0.8797,-0.8758,-0.8686,-0.8686,-0.8615,-0.8661,0,0,0,0,0,0,0,0,0,0,-0.8728,-0.8778,-0.8797,-0.8797,-0.8758,-0.8686,-0.8686,-0.8663,-0.8659,-0.8658,0,-0.8663,0,-0.8638,-0.8611,-0.8611,0,0,0,-0.8747,-0.8783,-0.8749,-0.8797,-0.8758,-0.8687,-0.8716,-0.866,-0.8655,-0.8651,-0.8662,-0.8658,-0.8636,-0.8611,-0.8611,-0.8646,-0.8646,0,0,-0.8751,-0.8793,-0.8752,-0.8746,-0.8761,-0.8718,-0.8714,-0.8657,-0.867,-0.8661,-0.8656,-0.8635,-0.8611,-0.861,-0.8645,-0.8646,0,0,0,-0.877,-0.8796,-0.8763,-0.875,-0.8735,-0.8716,-0.8711,-0.8673,-0.8658,-0.8655,-0.8634,-0.861,-0.861,-0.8644,-0.8645,-0.872,0,0,0,-0.8772,-0.8807,-0.8765,-0.879,-0.8736,-0.8703,-0.8729,-0.8662,-0.8655,-0.8635,-0.861,-0.8609,-0.8643,-0.8645,-0.8717,-0.875,0,0,0,-0.8796,-0.881,-0.8805,-0.8792,-0.8763,-0.8703,-0.8685,-0.866,-0.8642,-0.8611,-0.8609,-0.8643,-0.8644,-0.8713,-0.8744,-0.8769,0,0,0,-0.8834,-0.8875,-0.8807,-0.8843,-0.8764,-0.8751,-0.8685,-0.8674,-0.8656,-0.861,-0.8643,-0.8645,-0.8712,-0.874,-0.8766,-0.8798,-0.8816,0,0,-0.8909,-0.8885,-0.8903,-0.8839,-0.885,-0.8759,-0.8778,-0.8723,-0.8681,-0.8659,-0.8659,-0.8718,-0.8744,-0.8768,-0.8899,-0.8914,0,0,0,-0.894,-0.8953,-0.8947,-0.8931,-0.8889,-0.8854,-0.879,-0.8768,-0.8747,-0.8679,-0.8733,-0.8747,-0.8759,-0.8773,-0.8785,-0.8792,-0.8653,-0.8653,-0.8653,-0.9107,-0.9049,-0.9073,-0.9007,-0.8992,-0.8923,-0.8905,-0.8863,-0.8812,-0.8825,-0.8819,-0.8905,-0.8923,-0.8931,-0.8939,-0.8831,-0.8831,-0.8832,-0.8832,-0.9209,-0.9217,-0.9144,-0.9141,-0.9079,-0.9076,-0.9008,-0.8971,-0.8957,-0.8907,-0.8915,-0.8866,-0.8949,-0.8953,-0.8837,-0.8836,-0.8835,-0.8835,-0.8835,-0.9311,-0.9305,-0.9277,-0.9245,-0.9225,-0.9155,-0.9143,-0.9087,-0.9035,-0.9043,-0.9028,-0.9026,-0.9017,-0.9039,-0.904,-0.904,-0.904,-0.904,-0.904,-0.943,-0.9395,-0.9392,-0.9347,-0.9326,-0.9292,-0.9219,-0.9197,-0.9157,-0.9117,-0.9117,-0.9062,-0.8968,-0.8945,-0.9045,-0.9044,-0.9044,-0.9043,-0.9043,-0.9555,-0.9516,-0.9513,-0.9493,-0.9431,-0.9413,-0.934,-0.9298,-0.9271,-0.9266,-0.9207,-0.9147,-0.912,-0.911,-0.909,-0.9221,-0.9221,-0.9221,-0.9221,-0.9641,-0.9621,-0.9602,-0.9572,-0.9536,-0.9468,-0.9461,-0.9402,-0.9335,-0.9313,-0.9286,-0.9255,-0.9247,-0.9224,-0.9211,-0.9192,-0.9347,-0.9347,-0.9347,-0.9714,-0.9686,-0.9694,-0.9628,-0.9574,-0.9528,-0.9518,-0.9484,-0.9399,-0.935,-0.9295,-0.9289,-0.9239,-0.9226,-0.9179,-0.9161,-0.9125,0,0]},{"header":{"parameterUnit":"m.s-1","parameterCategory":1,"la1":30.2992,"la2":30.254,"lo1":-89.0895,"lo2":-89.0443,"dy":0.0025,"dx":0.0025,"nx":19,"ny":19,"refTime":"2026-05-07T03:00:00:Z","depth":0,"parameterNumber":3,"parameterNumberName":"V-component_of_WINDS"},"data":[0,0,0,-3.721,-3.721,-3.7207,-3.7206,-3.7212,-3.7212,0,0,0,0,0,0,0,0,0,0,0,-3.7219,-3.7219,-3.721,-3.721,-3.7207,-3.7206,-3.7212,-3.7212,0,0,0,0,0,0,0,0,0,0,0,-3.7219,-3.7219,-3.722,-3.721,-3.7207,-3.7206,-3.7212,-3.721,0,0,0,0,0,0,0,0,0,0,-3.7212,-3.7229,-3.7219,-3.722,-3.721,-3.7207,-3.7206,-3.721,-3.721,-3.7218,0,-3.723,0,-3.7221,-3.7213,-3.7213,0,0,0,-3.7203,-3.7229,-3.7221,-3.722,-3.721,-3.7207,-3.7206,-3.721,-3.7211,-3.7219,-3.7229,-3.7229,-3.7221,-3.7213,-3.7213,-3.7284,-3.7284,0,0,-3.7203,-3.7223,-3.722,-3.7221,-3.7225,-3.7206,-3.7206,-3.721,-3.7222,-3.7229,-3.7229,-3.7221,-3.7213,-3.7214,-3.7283,-3.7284,0,0,0,-3.7208,-3.7223,-3.7214,-3.7221,-3.722,-3.7206,-3.7206,-3.7222,-3.7218,-3.7229,-3.7221,-3.7214,-3.7214,-3.7282,-3.7283,-3.7333,0,0,0,-3.7208,-3.7226,-3.7215,-3.7226,-3.722,-3.7222,-3.7218,-3.7218,-3.7217,-3.7221,-3.7214,-3.7214,-3.7282,-3.7283,-3.733,-3.7352,0,0,0,-3.7216,-3.7227,-3.7229,-3.7228,-3.7227,-3.7221,-3.7217,-3.7217,-3.7213,-3.7213,-3.7214,-3.7281,-3.7283,-3.7327,-3.7348,-3.7374,0,0,0,-3.723,-3.7275,-3.7231,-3.7276,-3.7227,-3.7253,-3.7217,-3.7235,-3.7241,-3.7214,-3.7282,-3.7283,-3.7327,-3.7346,-3.7372,-3.7399,-3.7413,0,0,-3.7297,-3.7283,-3.7308,-3.7269,-3.7307,-3.7252,-3.7296,-3.7284,-3.7266,-3.7278,-3.728,-3.7331,-3.7348,-3.7374,-3.7486,-3.7497,0,0,0,-3.7336,-3.7354,-3.736,-3.7367,-3.7359,-3.7352,-3.7331,-3.7326,-3.7335,-3.7277,-3.7348,-3.7357,-3.7372,-3.7384,-3.7393,-3.7403,-3.729,-3.729,-3.729,-3.7457,-3.7431,-3.747,-3.7443,-3.7451,-3.7427,-3.7429,-3.7417,-3.7391,-3.7407,-3.741,-3.7482,-3.7497,-3.7504,-3.7514,-3.7424,-3.7424,-3.7425,-3.7425,-3.755,-3.757,-3.7531,-3.7555,-3.7526,-3.7545,-3.7523,-3.7502,-3.7514,-3.7478,-3.749,-3.7451,-3.7517,-3.7524,-3.7428,-3.7428,-3.7427,-3.7427,-3.7427,-3.7624,-3.7629,-3.7622,-3.7628,-3.7635,-3.7605,-3.7618,-3.7592,-3.7567,-3.7579,-3.7577,-3.7576,-3.7569,-3.758,-3.758,-3.758,-3.7581,-3.7581,-3.7581,-3.7704,-3.7694,-3.7708,-3.7702,-3.7701,-3.7697,-3.7672,-3.767,-3.766,-3.764,-3.764,-3.7608,-3.7529,-3.7508,-3.7585,-3.7584,-3.7584,-3.7583,-3.7583,-3.7804,-3.7776,-3.7799,-3.7798,-3.7786,-3.7792,-3.7759,-3.7756,-3.775,-3.7756,-3.7722,-3.7669,-3.7653,-3.7645,-3.7627,-3.773,-3.773,-3.773,-3.773,-3.7865,-3.7854,-3.7869,-3.787,-3.7867,-3.7838,-3.786,-3.7839,-3.7814,-3.7807,-3.7789,-3.7764,-3.7758,-3.7745,-3.7735,-3.7718,-3.7842,-3.7842,-3.7842,-3.7923,-3.7911,-3.7936,-3.7912,-3.7899,-3.7888,-3.7907,-3.7906,-3.7871,-3.7846,-3.7801,-3.7797,-3.7756,-3.7745,-3.7717,-3.7703,-3.7671,0,0]}]]